ジョンソン彗星

C/2015 V2 ( Johnson )

English version
Home page
Updated on April 4, 2021

---------------------------------------------------------------------

・ プロフィール

発見日 2015年11月3日
発見光度 17.1等
発見者 J. A. Johnson (Catalina Sky Survey)

・ 写真集

・ 軌道要素

Epoch 2017 June 16.0 TT = JDT 2457920.5
T 2017 June 12.33932 TT                                 Rudenko
q   1.6369845            (2000.0)            P               Q
z  -0.0010469      Peri.  164.89540     -0.49024362     +0.49432022
                   Node    69.84900     -0.85774620     -0.12744001
e   1.0017138      Incl.   49.87642     -0.15470181     -0.85988753
From 5988 observations 2015 Jan. 12-2019 Oct. 27, mean residual 0".5.
     Nongravitational parameters A1 = +2.59, A2 = -0.6389.

・ 星図

・ 光度変化

        m1 = 6.0 + 5 logΔ + 9.0 log r

---------------------------------------------------------------------

軌道要素はM.P.E.C. 2021-F20に掲載されたものです。
星図はステラナビゲータ Ver.8 (アストロアーツ) で作成したものです。
光度グラフはComet for Windowsで作成したものです。

---------------------------------------------------------------------

Copyright(C) Seiichi Yoshida (comet@aerith.net). All rights reserved.